Location: Bathurst
(33.4193°S, 149.5775°E)
Time: 23:27:18
(UTC+10:00)

Vanguard 3 - Pass Details

Date: 01 July 2021
Orbit: 508 x 3261 km, 33.4° (Epoch: 25 July)

Event Time Altitude Azimuth Distance (km) Brightness Sun altitude
Rises 22:50:09 0° 256° (WSW) 7,211 12.2 -70.5°
Reaches altitude 10° 22:56:12 10° 265° (W) 6,205 11.7 -71.6°
Enters shadow 23:04:19 22° 287° (WNW) 5,041 11.1 -73.0°
